sat.trackr.live / text

‹ back to catalog

STARLINK-34922

NORAD 65273 · 2025-184A

PAYLOAD ACTIVE UNKNOWN

§ Identity

Operator
Country
US
Launch date
2025-08-22
Launch site
AFWTR
Launch vehicle
Mass (kg)
RCS (m²)

Purposes: comms

External: N2YO · Heavens-Above · Gunter

§ Orbital elements

Epoch: 2026-09-19T10:39:07.826976Z

Period
93.91 min
Inclination
97.2857°
Eccentricity
0.0001626
Mean motion
15.33452051 rev/d
Perigee alt
464.4 km
Apogee alt
466.6 km
Semi-major
6,843.7 km
B*
3.9533e-4
RAAN
310.4419°
Arg perigee
97.1962°
Mean anomaly
262.9466°
Rev number
6,056

§ Raw data

STARLINK-349221 65273U 25184A   26262.44384059  .00012712  00000+0  39533-3 0  99962 65273  97.2857 310.4419 0001626  97.1962 262.9466 15.33452051 60565

JSON: /api/v1/satellites/65273 · /tle

For live sub-satellite position, see the globe view (requires WebGL).

§ Visibility from observer

Set your observer location to see the next 7 days of passes ≥ 10°. The values pass through the URL so the page stays shareable.

No JS? Fill the form by hand. The geolocation button needs JavaScript.